TimeCDT,TemperatureF,Dew PointF,Humidity,Sea Level PressureIn,VisibilityMPH,Wind Direction,Wind SpeedMPH,Gust SpeedMPH,PrecipitationIn,Events,Conditions,WindDirDegrees,DateUTC
12:15 AM,71.6,69.8,94,30.02,-9999.0,Calm,Calm,-,N/A,,Unknown,0,2013-06-16 05:15:00
12:35 AM,71.6,69.8,94,30.02,-9999.0,Calm,Calm,-,N/A,,Unknown,0,2013-06-16 05:35:00
12:55 AM,69.8,69.8,100,30.02,-9999.0,Calm,Calm,-,N/A,,Unknown,0,2013-06-16 05:55:00
1:15 AM,69.8,69.8,100,30.01,-9999.0,Calm,Calm,-,N/A,,Unknown,0,2013-06-16 06:15:00
1:35 AM,69.8,69.8,100,30.00,-9999.0,Calm,Calm,-,N/A,,Unknown,0,2013-06-16 06:35:00
1:55 AM,71.6,69.8,94,30.00,-9999.0,Calm,Calm,-,N/A,,Unknown,0,2013-06-16 06:55:00
2:15 AM,69.8,69.8,100,29.99,-9999.0,Calm,Calm,-,N/A,,Unknown,0,2013-06-16 07:15:00
2:35 AM,69.8,69.8,100,29.99,-9999.0,Calm,Calm,-,N/A,,Unknown,0,2013-06-16 07:35:00
2:55 AM,71.6,69.8,94,30.00,-9999.0,Calm,Calm,-,N/A,,Unknown,0,2013-06-16 07:55:00
3:15 AM,71.6,69.8,94,30.00,-9999.0,Calm,Calm,-,N/A,,Unknown,0,2013-06-16 08:15:00
3:35 AM,71.6,69.8,94,29.99,-9999.0,Calm,Calm,-,N/A,,Unknown,0,2013-06-16 08:35:00
3:55 AM,71.6,69.8,94,29.98,-9999.0,Calm,Calm,-,N/A,,Unknown,0,2013-06-16 08:55:00
4:15 AM,71.6,69.8,94,29.97,-9999.0,Calm,Calm,-,N/A,,Unknown,0,2013-06-16 09:15:00
4:35 AM,69.8,69.8,100,29.99,-9999.0,Calm,Calm,-,N/A,,Unknown,0,2013-06-16 09:35:00
4:55 AM,71.6,69.8,94,30.00,-9999.0,Calm,Calm,-,N/A,,Unknown,0,2013-06-16 09:55:00
5:15 AM,71.6,69.8,94,30.01,-9999.0,Calm,Calm,-,N/A,,Unknown,0,2013-06-16 10:15:00
5:35 AM,69.8,69.8,100,30.02,-9999.0,Calm,Calm,-,N/A,,Unknown,0,2013-06-16 10:35:00
5:55 AM,71.6,69.8,94,30.04,-9999.0,Calm,Calm,-,N/A,,Unknown,0,2013-06-16 10:55:00
6:15 AM,71.6,69.8,94,30.04,-9999.0,Calm,Calm,-,N/A,,Unknown,0,2013-06-16 11:15:00
6:35 AM,71.6,69.8,94,30.04,-9999.0,Calm,Calm,-,N/A,,Unknown,0,2013-06-16 11:35:00
6:55 AM,71.6,69.8,94,30.04,-9999.0,Calm,Calm,-,N/A,,Unknown,0,2013-06-16 11:55:00
7:15 AM,71.6,69.8,94,30.04,-9999.0,Calm,Calm,-,N/A,,Unknown,0,2013-06-16 12:15:00
7:35 AM,71.6,69.8,94,30.04,-9999.0,Calm,Calm,-,N/A,,Unknown,0,2013-06-16 12:35:00
7:55 AM,73.4,69.8,88,30.05,-9999.0,Calm,Calm,-,N/A,,Unknown,0,2013-06-16 12:55:00
8:15 AM,73.4,71.6,94,30.05,-9999.0,Calm,Calm,-,N/A,,Unknown,0,2013-06-16 13:15:00
8:35 AM,73.4,71.6,94,30.04,8.0,Calm,Calm,-,N/A,,Clear,0,2013-06-16 13:35:00
8:55 AM,75.2,71.6,89,30.04,9.0,Calm,Calm,-,N/A,,Partly Cloudy,0,2013-06-16 13:55:00
9:15 AM,75.2,69.8,83,30.04,9.0,Calm,Calm,-,N/A,,Clear,0,2013-06-16 14:15:00
9:35 AM,77.0,71.6,83,30.04,9.0,Calm,Calm,-,N/A,,Clear,0,2013-06-16 14:35:00
9:55 AM,78.8,71.6,78,30.04,6.0,WSW,4.6,-,N/A,,Haze,240,2013-06-16 14:55:00
10:15 AM,78.8,71.6,78,30.03,9.0,SW,3.5,-,N/A,,Clear,230,2013-06-16 15:15:00
10:35 AM,78.8,71.6,78,30.04,3.0,SSW,3.5,-,N/A,,Haze,210,2013-06-16 15:35:00
10:55 AM,80.6,71.6,74,30.04,8.0,WSW,3.5,-,N/A,,Partly Cloudy,240,2013-06-16 15:55:00
11:15 AM,80.6,71.6,74,30.04,5.0,SW,5.8,-,N/A,,Haze,220,2013-06-16 16:15:00
11:35 AM,80.6,69.8,70,30.04,9.0,SSW,8.1,-,N/A,,Partly Cloudy,210,2013-06-16 16:35:00
11:55 AM,82.4,69.8,66,30.03,10.0,SSW,6.9,-,N/A,,Clear,210,2013-06-16 16:55:00
12:15 PM,82.4,69.8,66,30.03,10.0,West,5.8,-,N/A,,Clear,260,2013-06-16 17:15:00
12:35 PM,84.2,71.6,66,30.02,10.0,SW,9.2,-,N/A,,Clear,230,2013-06-16 17:35:00
12:55 PM,82.4,71.6,70,30.01,10.0,WSW,4.6,-,N/A,,Clear,250,2013-06-16 17:55:00
1:15 PM,86.0,71.6,62,30.00,10.0,West,6.9,-,N/A,,Clear,270,2013-06-16 18:15:00
1:35 PM,86.0,69.8,58,29.99,10.0,WSW,5.8,-,N/A,,Clear,250,2013-06-16 18:35:00
1:55 PM,86.0,69.8,58,29.99,10.0,SW,5.8,-,N/A,,Clear,230,2013-06-16 18:55:00
2:15 PM,87.8,71.6,58,29.99,10.0,SW,8.1,-,N/A,,Clear,220,2013-06-16 19:15:00
2:35 PM,87.8,71.6,58,29.98,10.0,SSW,6.9,-,N/A,,Clear,210,2013-06-16 19:35:00
2:55 PM,89.6,71.6,55,29.98,10.0,SSW,8.1,-,N/A,,Clear,210,2013-06-16 19:55:00
3:15 PM,89.6,71.6,55,29.97,10.0,SSW,5.8,-,N/A,,Clear,210,2013-06-16 20:15:00
3:35 PM,87.8,71.6,58,29.96,10.0,South,6.9,-,N/A,,Clear,180,2013-06-16 20:35:00
3:55 PM,89.6,71.6,55,29.96,10.0,WSW,4.6,-,N/A,,Clear,240,2013-06-16 20:55:00
4:15 PM,87.8,71.6,58,29.95,10.0,Calm,Calm,-,N/A,,Clear,0,2013-06-16 21:15:00
4:35 PM,89.6,71.6,55,29.95,10.0,WSW,5.8,-,N/A,,Clear,240,2013-06-16 21:35:00
4:55 PM,89.6,71.6,55,29.95,10.0,Calm,Calm,-,N/A,,Clear,0,2013-06-16 21:55:00
5:15 PM,89.6,71.6,55,29.95,10.0,Calm,Calm,-,N/A,,Partly Cloudy,0,2013-06-16 22:15:00
5:35 PM,87.8,73.4,62,29.94,10.0,SW,3.5,-,N/A,,Partly Cloudy,220,2013-06-16 22:35:00
5:55 PM,87.8,73.4,62,29.94,10.0,SSW,4.6,-,N/A,,Clear,200,2013-06-16 22:55:00
6:15 PM,87.8,73.4,62,29.94,10.0,SE,3.5,-,N/A,,Partly Cloudy,140,2013-06-16 23:15:00
6:35 PM,84.2,75.2,74,29.94,10.0,Calm,Calm,-,N/A,,Clear,0,2013-06-16 23:35:00
6:55 PM,84.2,75.2,74,29.94,10.0,Calm,Calm,-,N/A,,Clear,0,2013-06-16 23:55:00
7:15 PM,82.4,75.2,79,29.95,9.0,Calm,Calm,-,N/A,,Clear,0,2013-06-17 00:15:00
7:35 PM,82.4,75.2,79,29.95,9.0,Calm,Calm,-,N/A,,Clear,0,2013-06-17 00:35:00
7:55 PM,80.6,77.0,89,29.96,10.0,Calm,Calm,-,N/A,,Clear,0,2013-06-17 00:55:00
8:15 PM,80.6,77.0,89,29.95,10.0,Calm,Calm,-,N/A,,Clear,0,2013-06-17 01:15:00
8:35 PM,80.6,75.2,84,29.95,10.0,Calm,Calm,-,N/A,,Clear,0,2013-06-17 01:35:00
8:55 PM,78.8,75.2,89,29.93,8.0,Calm,Calm,-,N/A,,Clear,0,2013-06-17 01:55:00
9:15 PM,78.8,75.2,89,29.93,9.0,Calm,Calm,-,N/A,,Clear,0,2013-06-17 02:15:00
9:35 PM,78.8,75.2,89,29.96,8.0,Calm,Calm,-,N/A,,Scattered Clouds,0,2013-06-17 02:35:00
9:55 PM,78.8,75.2,89,29.97,9.0,West,8.1,-,N/A,Thunderstorm,Thunderstorm,280,2013-06-17 02:55:00
10:15 PM,73.4,71.6,94,29.99,0.8,NW,11.5,18.4,N/A,Rain-Thunderstorm,Heavy Thunderstorms and Rain,320,2013-06-17 03:15:00
10:35 PM,73.4,69.8,88,30.00,-9999.0,ESE,4.6,-,N/A,Thunderstorm,Thunderstorm,110,2013-06-17 03:35:00
10:55 PM,71.6,69.8,94,30.02,-9999.0,ENE,5.8,-,N/A,Thunderstorm,Thunderstorm,70,2013-06-17 03:55:00
11:15 PM,71.6,68.0,88,29.99,-9999.0,East,10.4,17.3,N/A,Thunderstorm,Thunderstorm,90,2013-06-17 04:15:00
11:35 PM,69.8,69.8,100,29.97,-9999.0,North,3.5,-,N/A,Thunderstorm,Thunderstorm,350,2013-06-17 04:35:00
11:55 PM,69.8,69.8,100,29.95,-9999.0,Calm,Calm,-,N/A,,Unknown,0,2013-06-17 04:55:00